Location: Kosice
(48.7167°N, 21.2500°E)
Time: 07:49:26
(UTC+02:00)

Daily predictions for brighter satellites

Satellite Brightness Start Highest point End
(mag) Time Altitude Azimuth Time Altitude Azimuth Time Altitude Azimuth
Cosmos 1092 Rocket 4.4 20:13:04 10° SSW 20:19:10 70° W 20:25:23 10° N
SPOT 5 4.4 20:21:38 10° ESE 20:25:13 21° ENE 20:28:40 10° NNE
Okean 2 Rocket 3.1 20:21:11 10° S 20:25:40 81° E 20:30:13 10° NNE
Cosmos 1441 Rocket 4.4 20:22:25 10° NNW 20:26:00 44° W 20:29:34 10° SSW
Atlas Centaur 2 4.3 20:21:42 10° SSW 20:26:16 17° S 20:30:26 10° SE
S3M 4.1 20:21:04 10° N 20:27:17 66° ENE 20:33:33 10° SSE
Meteor 2-4 Rocket 4.0 20:24:32 10° N 20:29:51 48° ENE 20:35:16 10° SSE
Envisat 3.2 20:24:59 10° S 20:30:04 78° WSW 20:35:11 10° NNW
Cosmos 2360 Rocket 3.9 20:28:22 10° ESE 20:30:07 11° E 20:31:53 10° ENE
Cosmos 1980 Rocket 2.1 20:24:45 10° SSW 20:30:20 73° ESE 20:35:56 10° NNE
Cosmos 1553 Rocket 4.0 20:25:02 10° N 20:31:16 75° E 20:37:23 10° SSE
ERS-1 Rocket 3.6 20:26:44 10° SE 20:31:22 38° ENE 20:36:00 10° N
USA 186 3.1 20:30:25 10° S 20:33:37 43° W 20:36:53 10° NNW
Cosmos 2056 Rocket 4.0 20:31:31 10° SSW 20:36:38 65° WNW 20:41:51 10° NNE
ATLAS 2AS CENTAUR R/B 3.9 20:32:55 10° SSE 20:38:49 24° ESE 20:44:56 10° ENE
Helios 1A 3.0 20:36:25 10° SSE 20:40:38 71° ENE 20:44:52 10° N
Meteor 1-29 3.9 20:39:06 10° NE 20:42:07 27° E 20:45:04 10° SSE
Cosmos 2266 Rocket 4.3 20:38:16 10° SSE 20:43:53 42° E 20:49:30 10° NNE
NOSS 3-1 (A) 3.4 20:38:57 10° SW 20:44:48 82° SE 20:51:31 10° NE
Cosmos 1697 Rocket 3.5 20:41:27 10° SW 20:46:58 56° WNW 20:52:33 10° NNE
SOZ 4.4 20:44:11 10° WNW 20:47:06 68° NNE 20:48:42 16° E
NOAA 11 4.4 20:41:45 10° SSE 20:47:07 58° ENE 20:52:32 10° N
Cosmos 1607 4.3 20:42:34 10° NW 20:48:58 61° NE 20:54:36 14° SE
Cosmos 44 3.9 20:47:25 10° NW 20:51:38 46° WSW 20:55:58 10° SSE
ERBS 2.6 20:51:55 10° SSW 20:55:14 44° SE 20:58:35 10° ENE
Meteor 1-11 Rocket 3.8 20:51:17 10° S 20:57:04 67° E 21:02:48 10° NNE
Cosmos 1850 Rocket 4.0 20:54:38 10° NNW 21:00:02 84° ENE 21:04:52 13° SSE
Cosmos 1452 Rocket 3.5 20:55:20 10° SSW 21:00:37 88° ESE 21:05:57 10° NNE
Cosmos 1420 Rocket 3.9 21:00:59 10° SSW 21:06:07 71° ESE 21:11:19 10° NNE
Resurs 01 Rocket 4.0 21:03:37 10° SW 21:07:06 22° W 21:10:36 10° NW
YAOGAN 6 3.3 21:03:55 10° S 21:07:23 50° W 21:10:51 10° NNW
Cosmos 1633 4.4 21:05:52 10° SW 21:09:11 34° WNW 21:12:34 10° N
Okean 1-7 Rocket 4.0 21:05:52 10° N 21:10:11 45° ENE 21:13:00 20° SE
SPOT 1/Viking Rocket 4.1 21:10:35 18° SE 21:14:01 42° ENE 21:18:56 10° N
NOSS 3-1 (C) 4.2 21:09:39 10° WSW 21:15:30 57° NW 21:22:12 10° NE
Okean 1 Rocket 3.1 21:12:53 12° S 21:16:46 54° E 21:21:04 10° NNE
NOSS 2-3 (C) 4.2 21:18:04 10° S 21:22:34 43° ESE 21:27:50 10° NE
USA 215 4.3 21:16:56 10° ENE 21:23:02 43° N 21:29:09 10° WNW
Meteor 1-23 Rocket 4.2 21:18:59 10° NNW 21:24:35 87° W 21:29:21 15° S
MetOp-A 4.1 21:21:24 15° SSE 21:25:59 86° WSW 21:31:23 10° NNW
Cosmos 1300 Rocket 3.5 21:21:52 10° S 21:26:10 83° W 21:30:31 10° N
Terra 3.0 21:26:47 20° ESE 21:28:53 28° ENE 21:32:57 10° N
Cosmos 2278 Rocket 4.1 21:26:52 10° N 21:30:51 19° NE 21:34:48 10° E
USA 238 DEB 4.0 21:24:14 10° NW 21:31:16 63° NE 21:36:06 22° ESE
Cosmos 1975 4.1 21:31:02 23° E 21:31:18 23° E 21:34:28 10° NE
USA 238 4.0 21:24:20 10° NW 21:31:23 63° NE 21:36:12 22° ESE
Cosmos 1025 Rocket 2.9 21:31:31 10° N 21:35:49 85° E 21:38:13 26° SSE
Cosmos 2263 Rocket 2.5 21:31:36 10° NNW 21:37:16 65° WSW 21:41:13 20° S
Cosmos 2322 Rocket 2.2 21:31:49 10° SSW 21:37:32 87° ESE 21:43:17 10° NNE
SeaSat 1 3.9 21:33:06 10° NNE 21:37:43 40° NW 21:42:17 10° WSW
Helios 1B rocket 3.3 21:36:32 10° N 21:40:32 51° WNW 21:44:31 10° SSW
ARGOS 3.2 21:37:05 19° S 21:41:00 80° WSW 21:46:25 10° NNW
USA 245 3.9 21:37:31 20° SSE 21:41:15 87° WSW 21:45:46 10° NNW
BREEZE M DEB (TANK) 4.2 21:38:51 10° SSW 21:42:17 20° S 21:42:17 20° S
Abrixas rocket 2.1 21:42:00 10° W 21:45:17 86° S 21:46:11 45° E
Cosmos 220 Rocket 4.1 21:41:35 10° NNW 21:45:51 69° WSW 21:47:57 29° S
Cosmos 1844 Rocket 3.4 21:40:50 10° NNW 21:46:15 42° NE 21:49:01 25° ESE
SL-16 R/B 2.3 21:40:55 10° SSW 21:46:36 82° WNW 21:52:19 10° NNE
Cosmos 1238 Rocket 4.2 21:40:05 10° N 21:46:47 64° ENE 21:50:35 27° SSE
H-2A R/B 3.5 21:47:48 21° E 21:48:55 24° ENE 21:52:24 10° N
SL-08 RB Rocket 3.7 21:46:53 26° S 21:49:27 79° WSW 21:54:02 10° NNW
Tiangong 1 3.1 21:49:48 10° WSW 21:50:36 15° SW 21:50:36 15° SW
H-2A R/B 1.9 21:49:25 28° SSE 21:52:13 89° E 21:57:16 10° NNW
Cosmos 1743 4.3 21:54:06 20° ENE 21:54:06 20° ENE 21:56:21 10° NE
Cosmos 2322 4.0 21:51:08 28° SSE 21:53:29 42° ESE 21:58:49 10° NE
Cosmos 1536 4.0 21:49:58 10° SSW 21:53:50 42° WNW 21:57:45 10° N
SL-8 R/B 3.6 21:50:02 10° W 21:54:50 80° S 21:56:53 34° ESE
Lacrosse 5 rocket 3.7 21:54:45 10° WSW 21:55:54 11° SW 21:57:03 10° SW
ATLAS 3B R/B 2.6 21:50:27 10° NW 21:57:19 89° NE 22:00:43 31° SE
Nadezhda 1 Rocket 4.5 21:51:38 10° N 21:57:39 46° ENE 22:00:17 30° SE
COSMOS 2428 3.6 21:59:46 28° ESE 21:59:54 28° ESE 22:04:42 10° NE
Cosmos 1244 Rocket 4.4 21:56:07 22° S 22:00:17 74° E 22:06:25 10° NNE
Cosmos 2219 Rocket 3.8 22:02:26 17° E 22:02:26 17° E 22:05:05 10° ENE
NOSS 2-3 (D) 3.8 21:57:20 10° SW 22:02:07 80° SE 22:07:51 10° NE
SPOT 5 3.2 22:00:07 25° S 22:02:55 62° WSW 22:07:37 10° NNW
Cosmos 1892 Rocket 3.5 22:02:26 10° N 22:06:55 82° E 22:08:12 46° SSE
Cosmos 1626 Rocket 4.5 22:03:41 10° N 22:07:35 31° ENE 22:08:01 31° E
NOSS 3-2 (C) 4.4 22:00:56 10° NW 22:08:01 53° NE 22:12:55 23° ESE
ERS-1 Rocket 4.4 22:06:05 12° SSW 22:10:12 32° W 22:14:43 10° NNW
Cosmos 1844 4.2 22:05:12 10° NNW 22:10:42 49° NE 22:12:52 33° ESE
EXPRESS MD2 3.6 22:07:43 10° WSW 22:11:13 83° SSE 22:18:27 10° ENE
Lacrosse 5 2.0 22:11:23 42° SSE 22:12:09 46° SE 22:17:00 10° ENE
GP-B 3.8 22:08:18 10° NNE 22:12:27 37° E 22:12:40 36° E
Cosmos 2360 Rocket 2.1 22:09:04 20° SSW 22:13:04 71° ESE 22:18:42 10° NNE
Cosmos 2333 Rocket 3.9 22:15:23 17° E 22:15:23 17° E 22:17:53 10° ENE
Atlas Centaur 2 4.3 22:10:59 10° SW 22:13:54 14° SSW 22:13:54 14° SSW
ARGOS Delta rocket 4.5 22:12:20 10° NNE 22:16:18 34° E 22:16:18 34° E
Molniya-1 4.2 22:19:21 10° NW 22:21:28 52° N 22:21:28 52° N
Cosmos 1486 Rocket 3.9 22:19:05 10° NNW 22:24:24 87° WSW 22:25:53 48° SSE
SL-08 R/B 4.4 22:22:16 34° S 22:25:11 75° E 22:31:31 10° NNE
DMSP B5D2-2 4.0 22:21:07 10° NNE 22:26:24 80° ESE 22:28:22 40° S
Cosmos 1544 Rocket 3.5 22:26:33 61° SSE 22:27:17 78° E 22:31:46 10° NNE
ATLAS 2AS CENTAUR R/B 3.0 22:21:02 10° SW 22:28:51 87° SE 22:37:04 10° NE
Cosmos 1302 Rocket 4.0 22:29:35 51° SSE 22:30:37 61° ESE 22:35:50 10° NNE
Cosmos 1437 Rocket 3.4 22:32:37 43° ENE 22:32:37 43° ENE 22:35:49 10° NNE
ERBS 4.0 22:28:44 10° W 22:31:58 36° NNW 22:35:13 10° NE
Cosmos 1500 4.0 22:36:31 39° WSW 22:37:30 49° WNW 22:41:18 10° N
Cosmos 1110 Rocket 4.3 22:34:49 17° SW 22:38:43 64° WNW 22:43:54 10° NNE
Meteor 1-12 Rocket 4.1 22:37:02 40° S 22:39:12 90° WNW 22:44:54 10° NNE
Meteor 1-21 4.2 22:33:48 10° N 22:39:25 69° ENE 22:40:42 52° SE
Cosmos 1455 Rocket 3.0 22:39:46 69° S 22:40:18 89° W 22:44:48 10° N
Cosmos 405 3.4 22:40:32 59° WNW 22:40:32 59° WNW 22:44:05 10° N
Cosmos 2237 Rocket 3.8 22:42:56 19° E 22:42:56 19° E 22:45:33 10° NE
CZ-2C R/B 4.0 22:41:12 28° ENE 22:41:47 29° ENE 22:45:53 10° N
CENTAUR R/B 3.8 22:43:28 10° NW 22:50:41 46° NE 22:56:10 20° E
Cosmos 968 Rocket 4.4 22:46:56 10° N 22:51:41 36° ENE 22:52:34 33° E
Cosmos 1745 Rocket 3.9 22:52:00 42° SSW 22:54:16 84° W 23:00:28 10° N
Cosmos 1818 4.1 22:56:56 42° E 22:56:56 42° E 23:01:12 10° NE
ALOS 2 4.1 22:57:59 25° ENE 22:58:02 25° ENE 23:01:38 10° N
Cosmos 1354 Rocket 3.9 22:53:01 10° NNW 22:58:23 85° WSW 22:59:07 67° S
COSMOS 2455 4.3 22:54:46 10° NNW 23:00:03 31° NE 23:03:13 20° E
USA 81 4.0 22:58:04 10° N 23:03:22 69° E 23:03:49 65° ESE
USA 215 3.7 23:01:12 22° E 23:05:27 59° NNE 23:11:53 10° NW
Cosmos 1842 3.7 23:01:37 10° N 23:04:53 60° N 23:04:53 60° N
Terra 2.6 23:05:40 37° WSW 23:06:28 41° W 23:10:59 10° NNW
Cosmos 1975 4.2 23:06:49 30° W 23:07:38 33° WNW 23:11:18 10° N
ATLAS CENTAUR R/B 3.5 23:10:24 10° NNW 23:12:54 17° NNE 23:13:41 16° NE
BREEZE-M (TANK) 3.8 23:04:56 10° WNW 23:13:24 44° SW 23:13:24 44° SW
Cosmos 2278 Rocket 2.1 23:10:13 10° NNW 23:15:56 76° ENE 23:16:39 66° ESE
Cosmos 1602 Rocket 4.1 23:15:35 10° NNW 23:19:38 52° W 23:19:38 52° W
Cosmos 1503 Rocket 4.3 23:16:58 10° NNW 23:22:13 56° WSW 23:22:38 54° SW
NOSS 3-2 (A) 4.0 23:15:40 10° NW 23:23:00 65° SW 23:25:04 50° S
Cosmos 1666 3.7 23:23:53 45° NW 23:23:53 45° NW 23:27:08 10° N
CZ-4B R/B 3.3 23:18:48 10° NNE 23:23:14 72° ENE 23:23:14 72° ENE
Spot 4 4.2 23:24:02 54° WSW 23:24:08 54° W 23:28:50 10° NNW
H-2A R/B 2.9 23:24:56 42° W 23:24:56 42° W 23:28:52 10° NNW
Cosmos 1953 Rocket 4.3 23:20:28 10° N 23:24:15 44° NE 23:24:15 44° NE
Cosmos 972 Rocket 4.3 23:29:15 57° E 23:29:15 57° E 23:34:48 10° NNE
Cosmos 1743 4.2 23:29:13 32° WNW 23:29:13 32° WNW 23:32:33 10° N
Timation 1 Rocket 4.2 23:23:04 10° NNW 23:29:04 83° WSW 23:29:44 71° S
Cosmos 1844 Rocket 3.5 23:24:54 10° NW 23:30:06 38° WSW 23:30:40 37° WSW
Cosmos 1241 Rocket 4.5 23:29:01 43° SW 23:31:21 86° NW 23:37:52 10° NE
H-2A R/B 4.4 23:30:04 11° WSW 23:32:19 13° W 23:34:47 10° WNW
deb Chang Zheng 4 3.9 23:30:00 10° N 23:34:04 63° NW 23:34:04 63° NW
Meteor 1-15 Rocket 4.2 23:34:39 67° ESE 23:34:54 68° E 23:40:47 10° NNE
Cosmos 2074 Rocket 4.3 23:37:09 47° ESE 23:37:32 48° E 23:43:31 10° NNE
Meteor 2-9 Rocket 4.2 23:36:49 67° SW 23:37:34 79° WNW 23:43:18 10° N
NOSS 0 Rocket 3.9 23:38:10 64° ESE 23:38:16 64° ESE 23:44:27 10° NE
COSMOS 2428 3.2 23:41:45 36° WSW 23:43:51 56° WNW 23:49:30 10° NNE
CZ-4 R/B 4.4 23:39:53 10° N 23:44:28 52° WNW 23:44:53 50° W
Cosmos 2219 Rocket 2.1 23:44:06 72° SW 23:44:40 82° WNW 23:50:22 10° NNE
SL-16 R/B 3.5 23:48:03 26° E 23:48:03 26° E 23:51:35 10° NE
ATLAS 3B R/B 4.1 23:42:18 10° WNW 23:47:07 21° WSW 23:47:57 21° WSW
Cosmos 2181 Rocket 4.1 23:43:03 10° NNW 23:49:27 67° W 23:50:29 58° SW
Cosmos 1606 Rocket 4.3 23:51:18 50° NNE 23:51:18 50° NNE 23:54:43 10° NNE
Meteor 1-4 Rocket 4.2 23:52:17 36° N 23:52:17 36° N 23:54:41 10° N
CZ-2C R/B 2.6 23:46:55 10° NNE 23:52:06 73° E 23:52:06 73° E
RESURS DK-1 4.4 23:55:13 20° NE 23:55:13 20° NE 23:56:46 10° NE
